Location: Bodest
(46.3000°N, 22.5667°E)
Time: 02:10:47
(UTC+00:00)

FENGYUN 1C DEB - Pass Details

Date: 07 April 2023
Orbit: 806 x 916 km, 98.8° (Epoch: 29 May)

Event Time Altitude Azimuth Distance (km) Brightness Sun altitude
Rises 17:34:59 0° 157° (SSE) 3,534 ? -5.7°
Reaches altitude 10° 17:37:25 10° 155° (SSE) 2,590 ? -6.1°
Maximum altitude 17:43:11 72° 72° (ENE) 945 ? -7.0°
Drops below altitude 10° 17:48:51 10° 349° (N) 2,550 ? -8.0°
Sets 17:51:13 0° 348° (NNW) 3,477 ? -8.4°
